Weather History for Eastover, SC

Change the Weather History Date:

Monday, May 27, 2013

  Actual Average Record
Temperature  
Mean Temperature 68 °F -  
Max Temperature 84 °F 83 °F 93 °F (1998)
Min Temperature 52 °F 64 °F 52 °F (2013)
Cooling Degree Days 3    
Growing Degree Days 18 (Base 50)    
Moisture  
Dew Point 57 °F    
Average Humidity 66    
Maximum Humidity 95    
Minimum Humidity 38    
Precipitation  
Precipitation 0.00 in - - ()
Sea Level Pressure  
Sea Level Pressure 30.22 in    
Wind  
Wind Speed 3 mph (SE)    
Max Wind Speed 9 mph    
Max Gust Speed -    
Visibility 10 miles    
Events      
Averages and records for this station are not official NWS values.
T = Trace of Precipitation, MM = Missing Value Source: NWS Daily Summary

Daily Weather History Graph

Daily Weather History Graph

Search for Another Location

Airport:

Trip Planner

Search our weather history database for the weather conditions in past years. The results will help you decide how hot, cold, wet, or windy it might be!

Date:

Astronomy

May. 27, 2013 Rise Set
Actual Time 6:14 AM EDT 8:26 PM EDT
Civil Twilight 5:46 AM EDT 8:54 PM EDT
Nautical Twilight 5:11 AM EDT 9:29 PM EDT
Astronomical Twilight 4:34 AM EDT 10:07 PM EDT
Moon 11:07 PM EDT (5/27) 8:48 AM EDT (5/27)
Length of Visible Light 15h 08m
Length of Day
14h 11m
Waning Gibbous, 91% of the Moon is Illuminated
May 27
Waning Gibbous
May 31
Last Quarter
Jun 8
New
Jun 16
First Quarter
Jun 23
Full

Hourly Weather History & Observations

Time (EDT) Temp. Heat Index Dew Point Humidity Pressure Visibility Wind Dir Wind Speed Gust Speed Precip Events Conditions
12:58 AM 55.2 °F - 52.0 °F 89% 30.23 in 10.0 mi NNE 3.5 mph - N/A   Clear
1:58 AM 54.1 °F - 52.0 °F 92% 30.23 in 10.0 mi Calm Calm - N/A   Clear
2:58 AM 54.0 °F - 51.4 °F 91% 30.22 in 10.0 mi ENE 2.3 mph - N/A   Clear
3:58 AM 53.6 °F - 51.1 °F 91% 30.21 in 10.0 mi Calm Calm - N/A   Clear
4:58 AM 53.1 °F - 49.6 °F 88% 30.23 in 10.0 mi ESE 3.5 mph - N/A   Clear
5:58 AM 52.5 °F - 51.1 °F 95% 30.24 in 10.0 mi Calm Calm - N/A   Clear
6:58 AM 54.0 °F - 51.8 °F 92% 30.26 in 10.0 mi Calm Calm - N/A   Clear
7:58 AM 62.2 °F - 59.4 °F 90% 30.27 in 10.0 mi East 2.3 mph - N/A   Clear
8:58 AM 68.9 °F - 59.0 °F 71% 30.28 in 10.0 mi Variable 2.3 mph - N/A   Clear
9:58 AM 73.9 °F - 57.2 °F 56% 30.27 in 10.0 mi South 4.6 mph - N/A   Clear
10:58 AM 76.6 °F - 56.5 °F 50% 30.27 in 10.0 mi Variable 2.3 mph - N/A   Clear
11:58 AM 79.2 °F - 56.1 °F 45% 30.26 in 10.0 mi South 8.1 mph - N/A   Clear
12:58 PM 80.8 °F 80.8 °F 56.5 °F 43% 30.25 in 10.0 mi South 5.8 mph - N/A   Clear
1:58 PM 82.4 °F 82.0 °F 57.0 °F 42% 30.23 in 10.0 mi Calm Calm - N/A   Partly Cloudy
2:58 PM 82.9 °F 82.0 °F 55.2 °F 38% 30.22 in 10.0 mi Calm Calm - N/A   Clear
3:58 PM 84.2 °F 83.5 °F 57.4 °F 40% 30.19 in 10.0 mi Variable 2.3 mph - N/A   Clear
4:58 PM 84.4 °F 83.7 °F 57.9 °F 40% 30.18 in 10.0 mi Variable 3.5 mph - N/A   Clear
5:58 PM 84.0 °F 84.0 °F 59.7 °F 44% 30.16 in 10.0 mi South 8.1 mph - 0.00 in   Clear
6:58 PM 82.4 °F 82.9 °F 60.8 °F 48% 30.17 in 10.0 mi SE 8.1 mph - 0.00 in   Clear
7:58 PM 77.2 °F - 61.7 °F 59% 30.18 in 10.0 mi ESE 5.8 mph - 0.00 in   Clear
8:58 PM 72.3 °F - 61.5 °F 69% 30.18 in 10.0 mi SE 6.9 mph - N/A   Clear
9:58 PM 72.7 °F - 63.0 °F 71% 30.19 in 10.0 mi SE 9.2 mph - N/A   Clear
10:58 PM 71.4 °F - 62.2 °F 73% 30.20 in 10.0 mi SE 8.1 mph - N/A   Clear
11:58 PM 70.2 °F - 61.9 °F 75% 30.22 in 10.0 mi SSE 8.1 mph - N/A   Clear